User: anonymous   Login
Location: Sungai Laei
(2.6000°N, 113.7167°E)
Time: 13:50:22
(UTC+00:00)
Language:

SWIFT - Orbit

View from above orbital plane
View from above orbital plane
View from above satellite
View from above satellite

Ground track
Ground track

The orbit data is extracted from the following two-line orbital elements,

1 28485U 04047A   22227.76419615  .00002746  00000-0  14957-3 0  9994
2 28485  20.5560 253.9337 0010374 332.4431  27.5453 15.06709843972506
Epoch (UTC): 15 August 2022 18:20:26
Eccentricity: 0.0010374
inclination: 20.5560°
perigee height: 539 km
apogee height: 553 km
right ascension of ascending node: 253.9337°
argument of perigee: 332.4431°
revolutions per day: 15.06709843
mean anomaly at epoch: 27.5453°
orbit number at epoch: 97250

The dashed part of the orbit path shows where the satellite is in the earth's shadow,  

DLR